| time (UTC) | temp F | wind direction | speed MPH | gust MPH | rain 1hr in | rain 24hr in | rain mn in | humidity % | barometer mb |
| 20260510170106 | 63 | 131 | 1.0 | 7.0 | 0.00 | 0.00 | 0.00 | 72 | 1005.5 |
| 20260510165604 | 63 | 128 | 3.0 | 12.0 | 0.00 | 0.00 | 0.00 | 73 | 1005.6 |
| 20260510165104 | 62 | 154 | 3.0 | 9.0 | 0.00 | 0.00 | 0.00 | 73 | 1005.4 |
| 20260510164605 | 62 | 130 | 3.0 | 12.0 | 0.00 | 0.00 | 0.00 | 74 | 1005.4 |
| 20260510164104 | 62 | 147 | 3.0 | 10.0 | 0.00 | 0.00 | 0.00 | 74 | 1005.4 |
| 20260510163605 | 62 | 146 | 3.0 | 8.0 | 0.00 | 0.00 | 0.00 | 75 | 1005.4 |
| 20260510163104 | 61 | 143 | 4.0 | 10.0 | 0.00 | 0.00 | 0.00 | 75 | 1005.4 |
| 20260510162605 | 61 | 149 | 3.0 | 6.0 | 0.00 | 0.00 | 0.00 | 76 | 1005.4 |
| 20260510162104 | 61 | 163 | 3.0 | 7.0 | 0.00 | 0.00 | 0.00 | 76 | 1005.4 |
| 20260510161604 | 61 | 188 | 3.0 | 10.0 | 0.00 | 0.00 | 0.00 | 77 | 1005.4 |
| 20260510160606 | 60 | 138 | 3.0 | 7.0 | 0.00 | 0.00 | 0.00 | 78 | 1005.4 |
| 20260510160106 | 60 | 136 | 4.0 | 9.0 | 0.00 | 0.00 | 0.00 | 79 | 1005.4 |
| 20260510155605 | 60 | 144 | 3.0 | 8.0 | 0.00 | 0.00 | 0.00 | 79 | 1005.4 |
| 20260510155105 | 59 | 156 | 3.0 | 10.0 | 0.00 | 0.00 | 0.00 | 80 | 1005.4 |
| 20260510154605 | 59 | 141 | 3.0 | 7.0 | 0.00 | 0.00 | 0.00 | 81 | 1005.2 |
| 20260510154105 | 59 | 132 | 3.0 | 7.0 | 0.00 | 0.00 | 0.00 | 81 | 1005.4 |
| 20260510153104 | 58 | 153 | 4.0 | 8.0 | 0.00 | 0.00 | 0.00 | 82 | 1005.4 |
| 20260510152604 | 58 | 172 | 4.0 | 12.0 | 0.00 | 0.00 | 0.00 | 83 | 1005.4 |
| 20260510152105 | 58 | 135 | 2.0 | 6.0 | 0.00 | 0.00 | 0.00 | 83 | 1005.2 |
| 20260510151604 | 57 | 148 | 3.0 | 7.0 | 0.00 | 0.00 | 0.00 | 84 | 1005.2 |
| 20260510151104 | 57 | 139 | 3.0 | 9.0 | 0.00 | 0.00 | 0.00 | 85 | 1005.1 |
| 20260510150604 | 57 | 147 | 2.0 | 8.0 | 0.00 | 0.00 | 0.00 | 85 | 1005.1 |
| 20260510145604 | 56 | 199 | 4.0 | 9.0 | 0.00 | 0.00 | 0.00 | 86 | 1005.1 |
| 20260510145105 | 56 | 157 | 3.0 | 13.0 | 0.00 | 0.00 | 0.00 | 87 | 1005.1 |
| 20260510144606 | 56 | 147 | 3.0 | 12.0 | 0.00 | 0.00 | 0.00 | 87 | 1005.1 |
| 20260510144104 | 56 | 143 | 3.0 | 9.0 | 0.00 | 0.00 | 0.00 | 88 | 1005.1 |
| 20260510143604 | 55 | 155 | 2.0 | 6.0 | 0.00 | 0.00 | 0.00 | 88 | 1005.1 |
| 20260510142605 | 55 | 147 | 3.0 | 10.0 | 0.00 | 0.00 | 0.00 | 89 | 1005.1 |
| 20260510142104 | 54 | 136 | 2.0 | 8.0 | 0.00 | 0.00 | 0.00 | 90 | 1005.1 |
| 20260510141605 | 54 | 149 | 3.0 | 7.0 | 0.00 | 0.00 | 0.00 | 90 | 1005.1 |
| 20260510141104 | 54 | 159 | 3.0 | 8.0 | 0.00 | 0.00 | 0.00 | 91 | 1004.7 |
| 20260510140604 | 54 | 164 | 2.0 | 8.0 | 0.00 | 0.00 | 0.00 | 90 | 1004.7 |
| 20260510135105 | 54 | 143 | 4.0 | 8.0 | 0.00 | 0.00 | 0.00 | 91 | 1004.4 |
| 20260510134604 | 53 | 142 | 5.0 | 10.0 | 0.00 | 0.00 | 0.00 | 91 | 1004.4 |
| 20260510134104 | 53 | 141 | 3.0 | 8.0 | 0.00 | 0.00 | 0.00 | 91 | 1004.4 |
| 20260510133605 | 53 | 139 | 3.0 | 8.0 | 0.00 | 0.00 | 0.00 | 91 | 1004.1 |
| 20260510133104 | 53 | 143 | 3.0 | 9.0 | 0.00 | 0.00 | 0.00 | 91 | 1004.3 |
| 20260510132605 | 53 | 129 | 3.0 | 12.0 | 0.00 | 0.00 | 0.00 | 91 | 1004.4 |
| 20260510132104 | 53 | 143 | 5.0 | 10.0 | 0.00 | 0.00 | 0.00 | 91 | 1004.1 |
| 20260510131605 | 53 | 135 | 4.0 | 10.0 | 0.00 | 0.00 | 0.00 | 91 | 1004.4 |
| 20260510131104 | 53 | 132 | 3.0 | 12.0 | 0.00 | 0.00 | 0.00 | 91 | 1004.4 |
| 20260510130105 | 53 | 135 | 5.0 | 9.0 | 0.00 | 0.00 | 0.00 | 91 | 1004.3 |
| 20260510125604 | 53 | 143 | 3.0 | 7.0 | 0.00 | 0.00 | 0.00 | 91 | 1004.1 |
| 20260510125104 | 53 | 155 | 4.0 | 8.0 | 0.00 | 0.00 | 0.00 | 91 | 1004.3 |
| 20260510124604 | 53 | 137 | 5.0 | 12.0 | 0.00 | 0.00 | 0.00 | 91 | 1004.1 |
| 20260510124105 | 53 | 135 | 3.0 | 8.0 | 0.00 | 0.00 | 0.00 | 91 | 1004.1 |
| 20260510123604 | 53 | 130 | 3.0 | 9.0 | 0.00 | 0.00 | 0.00 | 91 | 1004.4 |
| 20260510123104 | 53 | 138 | 3.0 | 10.0 | 0.00 | 0.00 | 0.00 | 91 | 1004.4 |
| 20260510122605 | 53 | 149 | 3.0 | 8.0 | 0.00 | 0.00 | 0.00 | 91 | 1004.4 |
| 20260510122105 | 53 | 131 | 2.0 | 6.0 | 0.00 | 0.00 | 0.00 | 91 | 1004.4 |
| 20260510121105 | 53 | 148 | 3.0 | 10.0 | 0.00 | 0.00 | 0.00 | 91 | 1004.3 |
| 20260510120605 | 53 | 137 | 5.0 | 10.0 | 0.00 | 0.00 | 0.00 | 91 | 1004.4 |
| 20260510120105 | 53 | 132 | 3.0 | 9.0 | 0.00 | 0.00 | 0.00 | 91 | 1004.4 |
| 20260510115604 | 53 | 136 | 3.0 | 8.0 | 0.00 | 0.00 | 0.00 | 91 | 1004.4 |
| 20260510115104 | 53 | 144 | 5.0 | 13.0 | 0.00 | 0.00 | 0.00 | 91 | 1004.2 |
| 20260510114604 | 53 | 135 | 5.0 | 12.0 | 0.00 | 0.00 | 0.00 | 91 | 1004.1 |
| 20260510114104 | 53 | 132 | 4.0 | 13.0 | 0.00 | 0.00 | 0.00 | 91 | 1004.1 |
| 20260510113604 | 53 | 133 | 5.0 | 13.0 | 0.00 | 0.00 | 0.00 | 91 | 1004.1 |
| 20260510113104 | 53 | 139 | 3.0 | 9.0 | 0.00 | 0.00 | 0.00 | 91 | 1004.4 |
| 20260510112605 | 53 | 133 | 4.0 | 8.0 | 0.00 | 0.00 | 0.00 | 91 | 1004.1 |
| 20260510112104 | 53 | 133 | 4.0 | 8.0 | 0.00 | 0.00 | 0.00 | 91 | 1004.1 |
| 20260510111604 | 53 | 136 | 4.0 | 13.0 | 0.00 | 0.00 | 0.00 | 91 | 1004.1 |
| 20260510111104 | 53 | 140 | 5.0 | 12.0 | 0.00 | 0.00 | 0.00 | 91 | 1004.2 |
| 20260510110604 | 53 | 133 | 5.0 | 9.0 | 0.00 | 0.00 | 0.00 | 91 | 1004.1 |
| 20260510110104 | 53 | 124 | 5.0 | 10.0 | 0.00 | 0.00 | 0.00 | 91 | 1004.1 |
| 20260510105605 | 53 | 131 | 5.0 | 10.0 | 0.00 | 0.00 | 0.00 | 91 | 1004.4 |
| 20260510105104 | 53 | 132 | 4.0 | 9.0 | 0.00 | 0.00 | 0.00 | 91 | 1004.4 |
| 20260510104604 | 53 | 128 | 4.0 | 12.0 | 0.00 | 0.00 | 0.00 | 91 | 1004.1 |
| 20260510104104 | 53 | 129 | 5.0 | 13.0 | 0.00 | 0.00 | 0.00 | 91 | 1004.1 |
| 20260510103604 | 53 | 146 | 3.0 | 7.0 | 0.00 | 0.00 | 0.00 | 90 | 1004.1 |
| 20260510103104 | 53 | 130 | 5.0 | 12.0 | 0.00 | 0.00 | 0.00 | 90 | 1004.1 |
| 20260510102603 | 53 | 138 | 3.0 | 12.0 | 0.00 | 0.00 | 0.00 | 90 | 1004.1 |
| 20260510102105 | 53 | 138 | 3.0 | 10.0 | 0.00 | 0.00 | 0.00 | 90 | 1004.1 |
| 20260510101104 | 54 | 136 | 3.0 | 10.0 | 0.00 | 0.00 | 0.00 | 90 | 1004.1 |
| 20260510100604 | 54 | 150 | 3.0 | 8.0 | 0.00 | 0.00 | 0.00 | 90 | 1004.1 |
| 20260510100104 | 54 | 139 | 3.0 | 8.0 | 0.00 | 0.00 | 0.00 | 90 | 1004.1 |
| 20260510095605 | 54 | 144 | 5.0 | 8.0 | 0.00 | 0.00 | 0.00 | 89 | 1004.3 |
| 20260510095104 | 54 | 131 | 5.0 | 12.0 | 0.00 | 0.00 | 0.00 | 89 | 1004.4 |
| 20260510094603 | 54 | 134 | 5.0 | 12.0 | 0.00 | 0.00 | 0.00 | 89 | 1004.3 |
| 20260510094104 | 54 | 141 | 4.0 | 13.0 | 0.00 | 0.00 | 0.00 | 89 | 1004.1 |
| 20260510093604 | 54 | 128 | 4.0 | 8.0 | 0.00 | 0.00 | 0.00 | 89 | 1004.1 |
| 20260510092604 | 54 | 141 | 3.0 | 13.0 | 0.00 | 0.00 | 0.00 | 89 | 1004.2 |
| 20260510092103 | 54 | 133 | 3.0 | 10.0 | 0.00 | 0.00 | 0.00 | 89 | 1004.2 |
| 20260510091604 | 54 | 128 | 5.0 | 7.0 | 0.00 | 0.00 | 0.00 | 89 | 1004.1 |
| 20260510091104 | 54 | 132 | 4.0 | 8.0 | 0.00 | 0.00 | 0.00 | 89 | 1004.3 |
| 20260510090604 | 54 | 133 | 3.0 | 10.0 | 0.00 | 0.00 | 0.00 | 89 | 1004.1 |
| 20260510090103 | 54 | 122 | 4.0 | 7.0 | 0.00 | 0.00 | 0.00 | 88 | 1004.4 |
| 20260510085604 | 54 | 135 | 3.0 | 6.0 | 0.00 | 0.00 | 0.00 | 88 | 1004.4 |
| 20260510085104 | 54 | 148 | 3.0 | 8.0 | 0.00 | 0.00 | 0.00 | 88 | 1004.1 |
| 20260510084604 | 55 | 139 | 5.0 | 9.0 | 0.00 | 0.00 | 0.00 | 88 | 1004.3 |
| 20260510083604 | 55 | 158 | 3.0 | 9.0 | 0.00 | 0.00 | 0.00 | 88 | 1004.1 |
| 20260510083104 | 55 | 152 | 3.0 | 12.0 | 0.00 | 0.00 | 0.00 | 88 | 1004.1 |
| 20260510082603 | 55 | 151 | 4.0 | 9.0 | 0.00 | 0.00 | 0.00 | 88 | 1004.1 |
| 20260510082104 | 55 | 134 | 4.0 | 8.0 | 0.00 | 0.00 | 0.00 | 87 | 1004.1 |
| 20260510081104 | 55 | 142 | 4.0 | 13.0 | 0.00 | 0.00 | 0.00 | 87 | 1004.1 |
| 20260510080604 | 55 | 144 | 3.0 | 14.0 | 0.00 | 0.00 | 0.00 | 87 | 1004.3 |
| 20260510080104 | 55 | 126 | 3.0 | 6.0 | 0.00 | 0.00 | 0.00 | 87 | 1004.1 |
| 20260510075603 | 55 | 140 | 5.0 | 10.0 | 0.00 | 0.00 | 0.00 | 87 | 1004.4 |
| 20260510075104 | 55 | 133 | 5.0 | 9.0 | 0.00 | 0.00 | 0.00 | 86 | 1004.1 |
| 20260510074604 | 55 | 143 | 3.0 | 13.0 | 0.00 | 0.00 | 0.00 | 86 | 1004.1 |
| 20260510074104 | 55 | 128 | 6.0 | 10.0 | 0.00 | 0.00 | 0.00 | 86 | 1004.4 |
| 20260510073103 | 55 | 136 | 3.0 | 8.0 | 0.00 | 0.00 | 0.00 | 85 | 1004.1 |
| 20260510072604 | 55 | 130 | 3.0 | 8.0 | 0.00 | 0.00 | 0.00 | 85 | 1004.1 |
| 20260510072103 | 55 | 131 | 4.0 | 8.0 | 0.00 | 0.00 | 0.00 | 85 | 1004.1 |
| 20260510071604 | 55 | 143 | 3.0 | 6.0 | 0.00 | 0.00 | 0.00 | 85 | 1004.4 |
| 20260510071106 | 56 | 147 | 3.0 | 7.0 | 0.00 | 0.00 | 0.00 | 85 | 1004.1 |
| 20260510070603 | 56 | 133 | 5.0 | 12.0 | 0.00 | 0.00 | 0.00 | 85 | 1004.3 |
| 20260510070103 | 56 | 126 | 3.0 | 8.0 | 0.00 | 0.00 | 0.00 | 84 | 1004.1 |
| 20260510065605 | 56 | 145 | 3.0 | 14.0 | 0.00 | 0.00 | 0.00 | 84 | 1004.3 |
| 20260510065104 | 56 | 147 | 3.0 | 8.0 | 0.00 | 0.00 | 0.00 | 84 | 1004.3 |
| 20260510064603 | 56 | 150 | 3.0 | 6.0 | 0.00 | 0.00 | 0.00 | 84 | 1004.1 |
| 20260510064104 | 56 | 131 | 5.0 | 12.0 | 0.00 | 0.00 | 0.00 | 84 | 1004.1 |
| 20260510063604 | 56 | 136 | 4.0 | 10.0 | 0.00 | 0.00 | 0.00 | 83 | 1004.1 |
| 20260510063104 | 56 | 134 | 3.0 | 8.0 | 0.00 | 0.00 | 0.00 | 83 | 1004.1 |
| 20260510062603 | 56 | 121 | 3.0 | 10.0 | 0.00 | 0.00 | 0.00 | 83 | 1004.1 |
| 20260510062104 | 56 | 155 | 3.0 | 8.0 | 0.00 | 0.00 | 0.00 | 83 | 1004.1 |
| 20260510061604 | 56 | 133 | 4.0 | 8.0 | 0.00 | 0.00 | 0.00 | 83 | 1004.1 |
| 20260510061106 | 56 | 124 | 3.0 | 8.0 | 0.00 | 0.00 | 0.00 | 82 | 1004.1 |
| 20260510060605 | 56 | 126 | 2.0 | 6.0 | 0.00 | 0.00 | 0.00 | 82 | 1004.1 |
| 20260510060105 | 56 | 137 | 5.0 | 9.0 | 0.00 | 0.00 | 0.00 | 81 | 1004.1 |
| 20260510055607 | 57 | 143 | 4.0 | 9.0 | 0.00 | 0.00 | 0.00 | 81 | 1004.1 |
| 20260510055106 | 57 | 126 | 3.0 | 7.0 | 0.00 | 0.00 | 0.00 | 81 | 1004.1 |
| 20260510054605 | 57 | 140 | 4.0 | 8.0 | 0.00 | 0.00 | 0.00 | 80 | 1004.1 |
| 20260510054105 | 57 | 139 | 5.0 | 8.0 | 0.00 | 0.00 | 0.00 | 80 | 1004.1 |
| 20260510053105 | 57 | 124 | 3.0 | 7.0 | 0.00 | 0.00 | 0.00 | 79 | 1004.1 |
| 20260510052605 | 57 | 128 | 3.0 | 10.0 | 0.00 | 0.00 | 0.00 | 79 | 1004.1 |
| 20260510052106 | 57 | 139 | 3.0 | 10.0 | 0.00 | 0.00 | 0.00 | 79 | 1004.1 |
| 20260510051605 | 58 | 148 | 3.0 | 8.0 | 0.00 | 0.00 | 0.00 | 78 | 1004.1 |
| 20260510051105 | 58 | 135 | 3.0 | 10.0 | 0.00 | 0.00 | 0.00 | 78 | 1004.3 |
| 20260510050605 | 58 | 145 | 4.0 | 14.0 | 0.00 | 0.00 | 0.00 | 77 | 1004.1 |
| 20260510050106 | 58 | 119 | 3.0 | 12.0 | 0.00 | 0.00 | 0.00 | 77 | 1004.1 |
| 20260510045606 | 58 | 137 | 3.0 | 10.0 | 0.00 | 0.00 | 0.00 | 77 | 1004.1 |
| 20260510044605 | 59 | 131 | 3.0 | 8.0 | 0.00 | 0.00 | 0.00 | 76 | 1003.8 |
| 20260510044105 | 59 | 126 | 3.0 | 7.0 | 0.00 | 0.00 | 0.00 | 76 | 1004.1 |
| 20260510043605 | 59 | 136 | 5.0 | 9.0 | 0.00 | 0.00 | 0.00 | 75 | 1004.1 |
| 20260510043105 | 59 | 150 | 3.0 | 7.0 | 0.00 | 0.00 | 0.00 | 75 | 1004.1 |
| 20260510042105 | 60 | 151 | 5.0 | 10.0 | 0.00 | 0.00 | 0.00 | 74 | 1003.7 |
| 20260510041607 | 60 | 134 | 4.0 | 8.0 | 0.00 | 0.00 | 0.00 | 74 | 1003.7 |
| 20260510041105 | 60 | 137 | 3.0 | 8.0 | 0.00 | 0.00 | 0.00 | 73 | 1003.7 |
| 20260510040607 | 61 | 143 | 2.0 | 8.0 | 0.00 | 0.00 | 0.00 | 72 | 1003.4 |
| 20260510040106 | 61 | 131 | 3.0 | 10.0 | 0.00 | 0.00 | 0.00 | 72 | 1003.4 |
| 20260510035605 | 61 | 122 | 3.0 | 6.0 | 0.00 | 0.00 | 0.00 | 72 | 1003.4 |
| 20260510035105 | 61 | 132 | 3.0 | 6.0 | 0.00 | 0.00 | 0.00 | 71 | 1003.4 |
| 20260510034605 | 62 | 141 | 3.0 | 8.0 | 0.00 | 0.00 | 0.00 | 71 | 1003.4 |
| 20260510034105 | 62 | 158 | 3.0 | 7.0 | 0.00 | 0.00 | 0.00 | 70 | 1003.4 |
| 20260510033606 | 63 | 143 | 2.0 | 7.0 | 0.00 | 0.00 | 0.00 | 69 | 1003.0 |
| 20260510032605 | 64 | 128 | 3.0 | 9.0 | 0.00 | 0.00 | 0.00 | 68 | 1003.0 |
| 20260510032105 | 64 | 163 | 3.0 | 6.0 | 0.00 | 0.00 | 0.00 | 67 | 1003.0 |
| 20260510031605 | 65 | 129 | 3.0 | 6.0 | 0.00 | 0.00 | 0.00 | 66 | 1003.0 |
| 20260510031106 | 65 | 132 | 2.0 | 5.0 | 0.00 | 0.00 | 0.00 | 65 | 1003.0 |
| 20260510030606 | 66 | 129 | 3.0 | 6.0 | 0.00 | 0.00 | 0.00 | 64 | 1003.0 |
| 20260510030105 | 66 | 130 | 2.0 | 6.0 | 0.00 | 0.00 | 0.00 | 63 | 1002.7 |
| 20260510025605 | 67 | 149 | 3.0 | 8.0 | 0.00 | 0.00 | 0.00 | 63 | 1002.7 |
| 20260510025105 | 67 | 142 | 2.0 | 8.0 | 0.00 | 0.00 | 0.00 | 62 | 1002.7 |
| 20260510024606 | 68 | 136 | 3.0 | 9.0 | 0.00 | 0.00 | 0.00 | 61 | 1002.7 |
| 20260510023605 | 69 | 146 | 5.0 | 14.0 | 0.00 | 0.00 | 0.00 | 58 | 1002.4 |
| 20260510023105 | 70 | 144 | 3.0 | 10.0 | 0.00 | 0.00 | 0.00 | 57 | 1002.7 |
| 20260510022605 | 71 | 137 | 3.0 | 12.0 | 0.00 | 0.00 | 0.00 | 57 | 1002.4 |
| 20260510021605 | 73 | 183 | 2.0 | 6.0 | 0.00 | 0.00 | 0.00 | 54 | 1002.4 |
| 20260510021105 | 74 | 140 | 3.0 | 6.0 | 0.00 | 0.00 | 0.00 | 53 | 1002.4 |
| 20260510020606 | 75 | 188 | 2.0 | 8.0 | 0.00 | 0.00 | 0.00 | 53 | 1002.4 |
| 20260510020105 | 75 | 157 | 2.0 | 6.0 | 0.00 | 0.00 | 0.00 | 52 | 1002.4 |
| 20260510015606 | 76 | 166 | 2.0 | 7.0 | 0.00 | 0.00 | 0.00 | 52 | 1002.4 |
| 20260510015105 | 76 | 227 | 3.0 | 6.0 | 0.00 | 0.00 | 0.00 | 52 | 1002.4 |
| 20260510014605 | 75 | 210 | 1.0 | 5.0 | 0.00 | 0.00 | 0.00 | 52 | 1002.4 |
| 20260510014106 | 75 | 247 | 2.0 | 7.0 | 0.00 | 0.00 | 0.00 | 52 | 1002.4 |
| 20260510013606 | 75 | 225 | 3.0 | 10.0 | 0.00 | 0.00 | 0.00 | 51 | 1002.4 |
| 20260510013105 | 77 | 230 | 6.0 | 10.0 | 0.00 | 0.00 | 0.00 | 50 | 1002.4 |
| 20260510012606 | 77 | 236 | 4.0 | 7.0 | 0.00 | 0.00 | 0.00 | 49 | 1002.4 |
| 20260510012106 | 77 | 205 | 3.0 | 10.0 | 0.00 | 0.00 | 0.00 | 49 | 1002.4 |
| 20260510011606 | 78 | 235 | 4.0 | 8.0 | 0.00 | 0.00 | 0.00 | 48 | 1002.4 |
| 20260510011105 | 78 | 229 | 4.0 | 8.0 | 0.00 | 0.00 | 0.00 | 47 | 1002.4 |
| 20260510010605 | 78 | 248 | 3.0 | 6.0 | 0.00 | 0.00 | 0.00 | 47 | 1002.4 |
| 20260510010105 | 78 | 242 | 4.0 | 8.0 | 0.00 | 0.00 | 0.00 | 48 | 1002.4 |
| 20260510005105 | 79 | 243 | 5.0 | 10.0 | 0.00 | 0.00 | 0.00 | 47 | 1002.4 |
| 20260510004606 | 79 | 273 | 3.0 | 13.0 | 0.00 | 0.00 | 0.00 | 46 | 1002.4 |
| 20260510004105 | 80 | 234 | 2.0 | 8.0 | 0.00 | 0.00 | 0.00 | 45 | 1002.4 |
| 20260510003605 | 80 | 237 | 4.0 | 9.0 | 0.00 | 0.00 | 0.00 | 45 | 1002.4 |
| 20260510003105 | 80 | 231 | 3.0 | 6.0 | 0.00 | 0.00 | 0.00 | 46 | 1002.4 |
| 20260510002605 | 80 | 240 | 3.0 | 6.0 | 0.00 | 0.00 | 0.00 | 47 | 1002.4 |
| 20260510002105 | 80 | 229 | 3.0 | 7.0 | 0.00 | 0.00 | 0.00 | 47 | 1002.4 |
| 20260510001605 | 80 | 232 | 3.0 | 8.0 | 0.00 | 0.00 | 0.00 | 47 | 1002.4 |
| 20260510001106 | 80 | 248 | 4.0 | 10.0 | 0.00 | 0.00 | 0.00 | 47 | 1002.4 |
| 20260510000606 | 80 | 234 | 2.0 | 8.0 | 0.00 | 0.00 | 0.00 | 47 | 1002.7 |
| 20260509235604 | 80 | 223 | 3.0 | 6.0 | 0.00 | 0.00 | 0.00 | 47 | 1002.4 |
| 20260509235105 | 80 | 234 | 4.0 | 7.0 | 0.00 | 0.00 | 0.00 | 47 | 1002.4 |
| 20260509234604 | 79 | 231 | 4.0 | 8.0 | 0.00 | 0.00 | 0.00 | 47 | 1002.4 |
| 20260509234105 | 79 | 212 | 4.0 | 12.0 | 0.00 | 0.00 | 0.00 | 48 | 1002.7 |
| 20260509233605 | 80 | 233 | 4.0 | 12.0 | 0.00 | 0.00 | 0.00 | 48 | 1002.7 |
| 20260509233105 | 79 | 245 | 5.0 | 12.0 | 0.00 | 0.00 | 0.00 | 48 | 1002.7 |
| 20260509232605 | 79 | 255 | 3.0 | 15.0 | 0.00 | 0.00 | 0.00 | 49 | 1002.7 |
| 20260509232105 | 79 | 258 | 5.0 | 12.0 | 0.00 | 0.00 | 0.00 | 49 | 1002.7 |
| 20260509231605 | 79 | 267 | 5.0 | 10.0 | 0.00 | 0.00 | 0.00 | 49 | 1002.7 |
| 20260509231105 | 79 | 284 | 3.0 | 8.0 | 0.00 | 0.00 | 0.00 | 49 | 1002.7 |
| 20260509230605 | 79 | 244 | 6.0 | 13.0 | 0.00 | 0.00 | 0.00 | 49 | 1002.7 |
| 20260509230105 | 79 | 247 | 7.0 | 14.0 | 0.00 | 0.00 | 0.00 | 49 | 1002.8 |
| 20260509225605 | 79 | 264 | 5.0 | 10.0 | 0.00 | 0.00 | 0.00 | 50 | 1002.8 |
| 20260509225105 | 80 | 255 | 6.0 | 14.0 | 0.00 | 0.00 | 0.00 | 50 | 1003.0 |
| 20260509224605 | 80 | 262 | 5.0 | 10.0 | 0.00 | 0.00 | 0.00 | 50 | 1003.0 |
| 20260509224105 | 80 | 252 | 6.0 | 12.0 | 0.00 | 0.00 | 0.00 | 51 | 1003.0 |
| 20260509223605 | 79 | 246 | 4.0 | 10.0 | 0.00 | 0.00 | 0.00 | 51 | 1003.0 |
| 20260509223105 | 79 | 250 | 5.0 | 8.0 | 0.00 | 0.00 | 0.00 | 51 | 1003.0 |
| 20260509222605 | 80 | 269 | 5.0 | 13.0 | 0.00 | 0.00 | 0.00 | 51 | 1003.1 |
| 20260509222106 | 79 | 271 | 3.0 | 8.0 | 0.00 | 0.00 | 0.00 | 51 | 1003.4 |
| 20260509221605 | 79 | 272 | 4.0 | 9.0 | 0.00 | 0.00 | 0.00 | 51 | 1003.4 |
| 20260509221105 | 79 | 267 | 5.0 | 9.0 | 0.00 | 0.00 | 0.00 | 51 | 1003.4 |
| 20260509220605 | 79 | 245 | 6.0 | 13.0 | 0.00 | 0.00 | 0.00 | 51 | 1003.4 |
| 20260509220105 | 79 | 283 | 5.0 | 9.0 | 0.00 | 0.00 | 0.00 | 51 | 1003.4 |
| 20260509215605 | 79 | 256 | 5.0 | 14.0 | 0.00 | 0.00 | 0.00 | 51 | 1003.4 |
| 20260509215105 | 78 | 280 | 5.0 | 10.0 | 0.00 | 0.00 | 0.00 | 51 | 1003.4 |
| 20260509214105 | 78 | 269 | 5.0 | 13.0 | 0.00 | 0.00 | 0.00 | 51 | 1003.7 |
| 20260509213604 | 78 | 227 | 6.0 | 12.0 | 0.00 | 0.00 | 0.00 | 51 | 1003.7 |
| 20260509213105 | 78 | 262 | 5.0 | 10.0 | 0.00 | 0.00 | 0.00 | 51 | 1003.4 |
| 20260509212605 | 78 | 263 | 5.0 | 12.0 | 0.00 | 0.00 | 0.00 | 51 | 1003.7 |
| 20260509211605 | 77 | 258 | 5.0 | 9.0 | 0.00 | 0.00 | 0.00 | 51 | 1003.7 |
| 20260509211105 | 77 | 254 | 5.0 | 13.0 | 0.00 | 0.00 | 0.00 | 51 | 1003.8 |
| 20260509210605 | 77 | 277 | 5.0 | 13.0 | 0.00 | 0.00 | 0.00 | 51 | 1004.1 |
| 20260509210106 | 77 | 253 | 5.0 | 8.0 | 0.00 | 0.00 | 0.00 | 51 | 1004.1 |
| 20260509205605 | 77 | 258 | 4.0 | 10.0 | 0.00 | 0.00 | 0.00 | 51 | 1004.1 |
| 20260509205105 | 77 | 281 | 4.0 | 8.0 | 0.00 | 0.00 | 0.00 | 51 | 1004.1 |
| 20260509204605 | 77 | 273 | 5.0 | 9.0 | 0.00 | 0.00 | 0.00 | 51 | 1004.1 |
| 20260509204105 | 77 | 249 | 5.0 | 10.0 | 0.00 | 0.00 | 0.00 | 52 | 1004.1 |
| 20260509203605 | 76 | 235 | 5.0 | 10.0 | 0.00 | 0.00 | 0.00 | 52 | 1004.1 |
| 20260509203105 | 76 | 254 | 3.0 | 8.0 | 0.00 | 0.00 | 0.00 | 51 | 1004.1 |
| 20260509202604 | 76 | 275 | 5.0 | 9.0 | 0.00 | 0.00 | 0.00 | 51 | 1004.1 |
| 20260509202105 | 76 | 282 | 5.0 | 9.0 | 0.00 | 0.00 | 0.00 | 51 | 1004.4 |
| 20260509201606 | 76 | 278 | 3.0 | 8.0 | 0.00 | 0.00 | 0.00 | 51 | 1004.4 |
| 20260509201104 | 75 | 263 | 4.0 | 9.0 | 0.00 | 0.00 | 0.00 | 51 | 1004.1 |
| 20260509200606 | 75 | 251 | 4.0 | 8.0 | 0.00 | 0.00 | 0.00 | 51 | 1004.4 |
| 20260509200105 | 75 | 269 | 5.0 | 8.0 | 0.00 | 0.00 | 0.00 | 51 | 1004.4 |
| 20260509195605 | 75 | 271 | 4.0 | 9.0 | 0.00 | 0.00 | 0.00 | 51 | 1004.4 |
| 20260509195105 | 75 | 270 | 4.0 | 12.0 | 0.00 | 0.00 | 0.00 | 51 | 1004.4 |
| 20260509194604 | 75 | 245 | 5.0 | 10.0 | 0.00 | 0.00 | 0.00 | 52 | 1004.4 |
| 20260509194106 | 74 | 275 | 3.0 | 8.0 | 0.00 | 0.00 | 0.00 | 53 | 1004.7 |
| 20260509193605 | 74 | 278 | 3.0 | 7.0 | 0.00 | 0.00 | 0.00 | 53 | 1004.7 |
| 20260509192105 | 73 | 261 | 3.0 | 8.0 | 0.00 | 0.00 | 0.00 | 53 | 1004.7 |
| 20260509191605 | 73 | 273 | 3.0 | 7.0 | 0.00 | 0.00 | 0.00 | 53 | 1005.0 |
| 20260509191105 | 73 | 270 | 4.0 | 12.0 | 0.00 | 0.00 | 0.00 | 53 | 1004.8 |
| 20260509190604 | 73 | 231 | 4.0 | 9.0 | 0.00 | 0.00 | 0.00 | 53 | 1005.1 |
| 20260509190106 | 73 | 250 | 3.0 | 7.0 | 0.00 | 0.00 | 0.00 | 54 | 1005.1 |
| 20260509185604 | 73 | 256 | 4.0 | 8.0 | 0.00 | 0.00 | 0.00 | 54 | 1005.1 |
| 20260509185105 | 73 | 274 | 4.0 | 10.0 | 0.00 | 0.00 | 0.00 | 55 | 1005.1 |
| 20260509184605 | 72 | 280 | 4.0 | 8.0 | 0.00 | 0.00 | 0.00 | 56 | 1005.1 |
| 20260509184105 | 72 | 232 | 3.0 | 8.0 | 0.00 | 0.00 | 0.00 | 56 | 1005.1 |
| 20260509182606 | 71 | 253 | 3.0 | 13.0 | 0.00 | 0.00 | 0.00 | 57 | 1005.4 |
| 20260509182104 | 71 | 260 | 5.0 | 8.0 | 0.00 | 0.00 | 0.00 | 58 | 1005.4 |
| 20260509181105 | 70 | 272 | 3.0 | 8.0 | 0.00 | 0.00 | 0.00 | 59 | 1005.4 |
| 20260509180605 | 70 | 267 | 3.0 | 10.0 | 0.00 | 0.00 | 0.00 | 58 | 1005.4 |
| 20260509180105 | 70 | 271 | 3.0 | 6.0 | 0.00 | 0.00 | 0.00 | 59 | 1005.4 |
| 20260509175605 | 70 | 242 | 5.0 | 8.0 | 0.00 | 0.00 | 0.00 | 59 | 1005.4 |
| 20260509175105 | 70 | 243 | 4.0 | 9.0 | 0.00 | 0.00 | 0.00 | 59 | 1005.4 |
| 20260509174605 | 70 | 258 | 3.0 | 7.0 | 0.00 | 0.00 | 0.00 | 60 | 1005.4 |
| 20260509174106 | 70 | 259 | 2.0 | 8.0 | 0.00 | 0.00 | 0.00 | 61 | 1005.4 |
| 20260509173604 | 70 | 262 | 5.0 | 8.0 | 0.00 | 0.00 | 0.00 | 61 | 1005.4 |
| 20260509172604 | 70 | 138 | 2.0 | 8.0 | 0.00 | 0.00 | 0.00 | 61 | 1005.4 |
| 20260509172105 | 69 | 170 | 2.0 | 6.0 | 0.00 | 0.00 | 0.00 | 62 | 1005.4 |
| 20260509171604 | 69 | 151 | 2.0 | 7.0 | 0.00 | 0.00 | 0.00 | 63 | 1005.5 |
| 20260509171105 | 68 | 152 | 3.0 | 8.0 | 0.00 | 0.00 | 0.00 | 63 | 1005.8 |